Regional Weather Roundup
Issued by NWS

Home | Current Version | Previous Version | Text Only | Print | Product List | Glossary Off
Versions: 1 2 3 4 5 6 7 8 9 10 11 12 13 14 15 16 17 18 19 20 21 22 23 24 25 26 27 28 29 30 31 32 33 34 35 36 37 38 39 40 41 42 43 44 45 46 47 48 49 50

000
ASUS43 KIND 200909
RWRIN

WEATHER ROUNDUP FOR INDIANA
NATIONAL WEATHER SERVICE INDIANAPOLIS IN
500 AM EDT SUN AUG 20 2017

NOTE: "FAIR" INDICATES FEW OR NO CLOUDS BELOW 12,000 FEET WITH NO
SIGNIFICANT WEATHER AND/OR OBSTRUCTIONS TO VISIBILITY.

* - STATION DOES NOT REPORT WEATHER SUCH AS PRECIPITATION OR FOG.

+ - STATION NOT QUALITY CONTROLLED BY THE NATIONAL WEATHER SERVICE.
    USE DATA WITH CAUTION...ESPECIALLY DEWPOINT AND RELATIVE
    HUMIDITY OBSERVATIONS.

INZ001>003-010>013-019-020-201000-
NORTHWEST INDIANA

CITY           SKY/WX    TMP DP  RH WIND       PRES   REMARKS
GARY /AIRPORT/ CLEAR     65  59  81 SE5       30.01F
KNOX *+          N/A     54  54 100 CALM      30.02S VSB 1
LA PORTE +     CLEAR     56  54  94 CALM      30.03F
MICHIGAN CITY+ CLEAR     61  59  94 CALM      30.02F
MONTICELLO +   CLEAR     63  61  96 CALM      30.01F
RENSSELAER +   CLEAR     61  55  82 NE5       30.01F
VALPARAISO     CLEAR     59  57  93 NE3       30.02F

$$

LMZ046-743>745-201000-
SOUTHERN LAKE MICHIGAN

STATION/POSITION TIME  TEMP    WIND        PRES    WAVE
                       AIR SEA DIR/SP/G            HT
                 (UTC) (F)     (DEG/KT/KT) (MB)    (FT)
BURNS HARBOR     0840   70     150/  9/ 12 1016.6F
MICHIGAN CITY    0840   66     130/  9/ 10   N/A
5NW MICH CITY    0900   69 74  160/ 12/ 14   N/A     1

$$

INZ004-005-014>016-021>024-201000-
NORTH CENTRAL INDIANA

CITY           SKY/WX    TMP DP  RH WIND       PRES   REMARKS
GOSHEN         CLEAR     57  54  89 CALM      30.03F FOG
LOGANSPORT +   CLEAR     59  59 100 E3        30.03F
PERU/GRISSOM   PTCLDY    64  61  90 E3        30.02S
ROCHESTER +    CLEAR     59  59 100 CALM      30.03F
SOUTH BEND     CLEAR     59  59 100 CALM      30.03F
WARSAW +       CLEAR     57  57 100 CALM      30.04S FOG

$$

INZ006>009-017-018-025>027-201000-
NORTHEAST INDIANA

CITY           SKY/WX    TMP DP  RH WIND       PRES   REMARKS
AUBURN +       FOG       57  55  94 CALM      30.06R VSB 1
FORT WAYNE     CLEAR     59  57  93 CALM      30.05R
HUNTINGTON +   CLEAR     59  58  96 CALM      30.04S FOG

$$

INZ028-029-035-036-043>045-051>053-201000-
WEST CENTRAL INDIANA

CITY           SKY/WX    TMP DP  RH WIND       PRES   REMARKS
GREENCASTLE +  CLEAR     64  61  88 CALM      30.02S
LAFAYETTE      CLEAR     63  61  93 CALM      30.00F
TERRE HAUTE    CLEAR     63  61  93 CALM      30.00S FOG

$$

INZ030>032-037>040-046>048-054>057-064-065-201000-
CENTRAL INDIANA

CITY           SKY/WX    TMP DP  RH WIND       PRES   REMARKS
CP ATTERBURY + PTCLDY    64  63  94 CALM      30.02S FOG
FRANKFORT +    MOCLDY    65  62  90 SE5       30.03F
GREENWOOD *+   PTCLDY    68  62  80 E3        30.03S
INDIANAPOLIS   PTCLDY    71  62  73 E7        30.00F
-EAGLE CREEK   CLEAR     68  61  78 E3        30.01F
KOKOMO +       PTCLDY    62  60  93 CALM      30.04S
MARION +       CLEAR     61  59  94 CALM      30.04S
MT COMFORT *+  CLEAR     61  59  94 CALM      30.03S
SHELBYVILLE    CLEAR     65  61  87 E5        30.01S
ZIONSVILLE +   CLEAR     61  60  96 CALM      30.03F

$$

INZ033-034-041-042-049-050-058-059-201000-
EAST CENTRAL INDIANA

CITY           SKY/WX    TMP DP  RH WIND       PRES   REMARKS
MUNCIE         PTCLDY    65  61  87 CALM      30.04S
RICHMOND +     CLEAR     61  59  94 E5        30.06S

$$

INZ060-061-067>069-081>083-085>088-201000-
SOUTHWEST INDIANA

CITY           SKY/WX    TMP DP  RH WIND       PRES   REMARKS
EVANSVILLE     PTCLDY    70  67  90 CALM      30.00S
HUNTINGBURG +  CLEAR     68  66  94 CALM      30.01R FOG
WASHINGTON +   CLEAR     66  64  94 MISG      30.00R

$$

INZ062-063-066-070>080-084-089>092-201000-
SOUTH CENTRAL AND SOUTHEAST INDIANA

CITY           SKY/WX    TMP DP  RH WIND       PRES   REMARKS
BEDFORD +      CLEAR     68  64  88 CALM      30.01S
BLOOMINGTON    CLEAR     65  61  87 CALM      30.01S FOG
MADISON *+     CLEAR     66  64  94 CALM      30.05S
NORTH VERNON + CLEAR     66  66 100 CALM      30.03S
SEYMOUR +      PTCLDY    66  66 100 CALM      30.02  FOG

$$





USA.gov is the U.S. government's official web portal to all federal, state and local government web resources and services.